Jackson, MI

7:09 AM EST on November 13, 2019 (GMT -0500)
Jackson County-Reynolds

Weather History for KJXN - August, 2019

Change the Weather History Date:

Monday, August 12, 2019

  Actual Average Record
Temperature  
Mean Temperature 76 °F 70 °F  
Max Temperature 84 °F 81 °F 93 °F (2016)
Min Temperature 68 °F 60 °F 44 °F (1967)
Degree Days  
Heating Degree Days 0 1  
Month to date heating degree days 0 8  
Since 1 June heating degree days 58 74  
Since 1 July heating degree days 0 19  
Cooling Degree Days 11 6  
Month to date cooling degree days 62 72  
Year to date cooling degree days 467 437  
Since 1 June cooling degree days 457 400  
Growing Degree Days 26 (Base 50)    
Moisture  
Dew Point 68 °F    
Average Humidity 80    
Maximum Humidity 94    
Minimum Humidity 65    
Precipitation  
Precipitation 0.01 in 0.11 in 2.49 in (2016)
Month to date precipitation 0.22 1.38  
Year to date precipitation 20.41 18.83  
Sea Level Pressure  
Sea Level Pressure 29.88 in    
Wind  
Wind Speed 4 mph (SSW)    
Max Wind Speed 10 mph    
Max Gust Speed 14 mph    
Visibility 10 miles    
Events      
T = Trace of Precipitation, MM = Missing Value Source: NWS Daily Summary

Daily Weather History Graph

Daily Weather History Graph

Search for Another Location

Airport or City:

Astronomy

Aug. 12, 2019 Rise Set
Actual Time 6:41 AM EDT 8:43 PM EDT
Civil Twilight 6:11 AM EDT 9:13 PM EDT
Nautical Twilight 5:33 AM EDT 9:50 PM EDT
Astronomical Twilight 4:52 AM EDT 10:31 PM EDT
Moon 7:15 PM EDT (8/12) 3:47 AM EDT (8/12)
Length of Visible Light 15h 02m
Length of Day
14h 01m
Waxing Gibbous, 93% of the Moon is Illuminated
Aug 12
Waxing Gibbous
Aug 15
Full
Aug 23
Last Quarter
Aug 30
New
Sep 5
First Quarter

Hourly Weather History & Observations

Time (EDT) Temp. Heat Index Dew Point Humidity Pressure Visibility Wind Dir Wind Speed Gust Speed Precip Events Conditions
12:56 AM 72.0 °F - 63.0 °F 73% 29.96 in 10.0 mi SSW 3.5 mph - N/A   Overcast
1:56 AM 71.1 °F - 63.0 °F 75% 29.95 in 10.0 mi Calm Calm - N/A   Overcast
2:56 AM 72.0 °F - 62.1 °F 71% 29.94 in 10.0 mi Calm Calm - N/A   Overcast
3:56 AM 69.1 °F - 61.0 °F 75% 29.93 in 10.0 mi Calm Calm - N/A   Scattered Clouds
4:56 AM 71.1 °F - 62.1 °F 73% 29.92 in 10.0 mi South 4.6 mph - N/A   Overcast
5:56 AM 71.1 °F - 62.1 °F 73% 29.92 in 10.0 mi SSW 4.6 mph - N/A   Overcast
6:22 AM 71.1 °F - 63.0 °F 75% 29.93 in 10.0 mi South 4.6 mph - N/A   Overcast
6:56 AM 71.1 °F - 63.0 °F 75% 29.91 in 10.0 mi South 3.5 mph - N/A   Overcast
7:13 AM 71.1 °F - 63.0 °F 75% 29.93 in 10.0 mi Calm Calm - N/A   Overcast
7:56 AM 71.1 °F - 64.9 °F 81% 29.92 in 10.0 mi SSW 4.6 mph - N/A   Overcast
8:56 AM 73.9 °F - 66.0 °F 76% 29.94 in 10.0 mi SW 5.8 mph - N/A   Overcast
9:56 AM 77.0 °F - 66.9 °F 71% 29.92 in 10.0 mi South 6.9 mph - N/A   Partly Cloudy
10:56 AM 79.0 °F - 68.0 °F 69% 29.91 in 10.0 mi SSW 4.6 mph - N/A   Clear
11:56 AM 81.0 °F 84.1 °F 69.1 °F 67% 29.92 in 10.0 mi SSW 6.9 mph - N/A   Overcast
12:34 PM 82.0 °F 85.9 °F 70.0 °F 67% 29.92 in 10.0 mi Variable 5.8 mph - N/A   Mostly Cloudy
12:47 PM 81.0 °F 84.4 °F 70.0 °F 69% 29.92 in 10.0 mi Variable 4.6 mph - N/A   Mostly Cloudy
12:56 PM 81.0 °F 84.1 °F 69.1 °F 67% 29.90 in 10.0 mi Variable 3.5 mph - N/A   Mostly Cloudy
1:14 PM 82.0 °F 85.9 °F 70.0 °F 67% 29.91 in 10.0 mi SSW 6.9 mph - N/A   Overcast
1:56 PM 81.0 °F 84.4 °F 70.0 °F 69% 29.88 in 10.0 mi SSW 8.1 mph - N/A   Mostly Cloudy
2:56 PM 82.9 °F 87.5 °F 71.1 °F 67% 29.86 in 10.0 mi WSW 4.6 mph - N/A   Mostly Cloudy
3:56 PM 82.0 °F 86.3 °F 71.1 °F 69% 29.83 in 10.0 mi SW 3.5 mph - N/A   Mostly Cloudy
4:56 PM 82.9 °F 87.0 °F 70.0 °F 65% 29.81 in 10.0 mi WSW 4.6 mph - N/A   Mostly Cloudy
5:56 PM 82.0 °F 86.3 °F 71.1 °F 69% 29.82 in 10.0 mi WSW 4.6 mph - N/A   Mostly Cloudy
6:56 PM 81.0 °F 84.9 °F 71.1 °F 72% 29.81 in 10.0 mi WSW 5.8 mph - N/A   Mostly Cloudy
7:56 PM 78.1 °F - 72.0 °F 81% 29.82 in 9.0 mi WSW 4.6 mph - N/A   Mostly Cloudy
8:56 PM 75.9 °F - 73.9 °F 94% 29.82 in 5.0 mi WSW 3.5 mph - 0.01 in   Overcast
9:56 PM 75.0 °F - 73.9 °F 96% 29.83 in 6.0 mi SSE 5.8 mph - N/A   Overcast
10:02 PM 75.0 °F - 73.0 °F 94% 29.85 in 7.0 mi SSE 8.1 mph - N/A   Mostly Cloudy
10:09 PM 73.9 °F - 71.1 °F 91% 29.85 in 9.0 mi SE 8.1 mph - N/A   Overcast
10:43 PM 73.0 °F - 70.0 °F 90% 29.85 in 10.0 mi South 3.5 mph - N/A   Overcast
10:56 PM 73.0 °F - 70.0 °F 90% 29.82 in 10.0 mi SSE 4.6 mph - N/A   Overcast
11:23 PM 72.0 °F - 70.0 °F 93% 29.83 in 10.0 mi SSE 5.8 mph - N/A   Overcast
11:32 PM 72.0 °F - 70.0 °F 93% 29.83 in 10.0 mi SSE 4.6 mph - N/A   Overcast
11:56 PM 72.0 °F - 70.0 °F 93% 29.79 in 10.0 mi SSE 4.6 mph - N/A   Mostly Cloudy